www.pogodaiklimat.ru

Погода и климат >> Архив погоды >> Индонезия >> Серанг


ПОГОДА в Серанге

  • Прогноз погоды в Серанге
  • Монитор погоды в Серанге

АРХИВ ПОГОДЫ в Серанге

Время (UTC), дата Ветер
(напр.,м/с)
 
Видим.   Явления Облачность Т
(С)
Тd
(С)
f
(%)
Тe
(С)
Тes
(С)
Комфортность P
(гПа)
Po
(гПа)
Тmin
(С)
Tmax
(С)
R
(мм)
R24
(мм)
S
(см)
00 17.01 штиль 0 8000 м {дождь} 8/4 500 м
[Sc As trans Ci fib]
+26.8 +23.2 81 +36 +37 очень
душно
1007.8 1004.8 +25.0 0.4
03 17.01 З 2 5000 м слаб. дождь 10/9 500 м
[Sc As op Ci fib]
+27.6 +24.9 85 +39 +40 очень
душно
1009.3 1006.3 0.0
06 17.01 З 2 8000 м {дождь} 9/6 500 м
[Sc As op Ci fib]
+29.4 +24.0 73 +41 +46 опасность
перегрева
1006.2 1003.3 0.2
09 17.01 З 2 7000 м 9/6 500 м
[Sc As op Ci fib]
+29.6 +23.9 71 +41 +42 опасность
перегрева
1004.8 1001.8
12 17.01 штиль 0 7000 м 9/6 500 м
[Sc As op Ci fib]
+27.6 +24.1 81 +38 +38 очень
душно
1007.0 1004.0 +31.0
15 17.01 З 3 5000 м мгла 9/6 500 м
[Sc As op Ci fib]
+27.6 +24.3 82 +39 +39 очень
душно
1008.1 1005.1
18 17.01 СЗ 3 5000 м мгла 8/5 500 м
[Sc As op Ci fib]
+27.4 +24.4 84 +39 +39 очень
душно
1006.9 1003.9
21 17.01 З 2 5000 м мгла 8/5 500 м
[Sc As op Ci fib]
+26.8 +24.3 86 +37 +37 очень
душно
1006.0 1003.0
00 18.01 ЮЗ 3 9000 м 9/5 500 м
[Sc As op Ci fib]
+26.4 +23.9 86 +36 +37 очень
душно
1007.1 1004.1 +26.0 0.2
03 18.01 З 3 7000 м 10/6 500 м
[Sc As op Ci fib]
+30.0 +24.0 70 +41 +44 опасность
перегрева
1008.2 1005.2
06 18.01 СЗ 3 10 км 9/6 500 м
[Sc As op Ci fib]
+32.2 +24.1 62 +44 +48 опасность
перегрева
1006.2 1003.2
09 18.01 ЮЗ 2 12 км 6/4 500 м
[Cu med, cong As op Ci fib]
+32.2 +24.7 65 +45 +48 опасность
перегрева
1004.3 1001.3
12 18.01 ЮЗ 3 12 км 6/4 500 м
[Sc As op Ci fib]
+28.0 +24.6 82 +40 +40 очень
душно
1006.6 1003.6 +33.6
15 18.01 З 2 7000 м 8/4 500 м
[Sc As op Ci fib]
+27.2 +24.8 87 +39 +39 очень
душно
1008.4 1005.4
18 18.01 штиль 0 7000 м 8/4 500 м
[Sc As op Ci fib]
+27.0 +24.6 87 +38 +38 очень
душно
1007.3 1004.3
21 18.01 ЮЗ 3 7000 м 9/5 500 м
[Sc As op Ci fib]
+26.4 +24.2 88 +37 +37 очень
душно
1006.2 1003.2
00 19.01 С 3 5000 м мгла 10/8 500 м
[Sc As op Ci fib]
+26.2 +24.3 89 +36 +37 очень
душно
1008.8 1005.8 +25.0
03 19.01 СЗ 2 5000 м мгла {гроза, дождь} 10/6 500 м
[Sc As op]
+26.6 +24.1 86 +37 +38 очень
душно
1009.5 1006.5 13
06 19.01 СЗ 4 6000 м {гроза, дождь} 10/6 500 м
[Sc As op Ci fib]
+29.2 +22.9 69 +39 +42 очень
душно
1007.6 1004.6 13
09 19.01 З 1 7000 м 9/5 500 м
[Sc As op Ci fib]
+29.8 +24.4 73 +42 +44 опасность
перегрева
1005.3 1002.3
12 19.01 штиль 0 7000 м 8/5 500 м
[Sc As op Ci fib]
+27.2 +25.0 88 +39 +39 очень
душно
1007.2 1004.2 +30.0
15 19.01 штиль 0 7000 м 8/4 500 м
[Sc As op Ci fib]
+26.2 +24.6 91 +37 +37 очень
душно
1008.8 1005.8
18 19.01 штиль 0 7000 м 9/5 500 м
[Sc As op Ci fib]
+25.9 +23.4 86 +35 +35 очень
душно
1007.7 1004.7
21 19.01 штиль 0 7000 м 9/5 500 м
[Sc As op Ci fib]
+25.4 +24.2 93 +35 +35 очень
душно
1006.9 1003.9
00 20.01 штиль 0 7000 м 10/6 500 м
[Sc As op Ci fib]
+25.8 +24.4 92 +36 +37 очень
душно
1008.5 1005.5 +24.6 13
03 20.01 С 2 5000 м мгла 9/6 500 м
[Sc As op Ci fib]
+30.6 +24.7 71 +43 +48 опасность
перегрева
1009.4 1006.4
06 20.01 СВ 4 5000 м мгла 9/6 500 м
[Cu med, cong As op Ci fib]
+31.0 +24.7 69 +44 +47 опасность
перегрева
1007.6 1004.6
09 20.01 СВ 4 5000 м мгла 10/6 500 м
[Cu med, cong As op Ci fib]
+29.6 +25.3 78 +43 +44 опасность
перегрева
1006.2 1003.2
12 20.01 штиль 0 6000 м 9/5 500 м
[Sc As op Ci fib]
+28.4 +25.2 83 +41 +41 опасность
перегрева
1008.2 1005.2 +32.0
15 20.01 штиль 0 6000 м 8/4 500 м
[Sc As op Ci fib]
+26.8 +23.8 84 +37 +37 очень
душно
1010.0 1007.0
18 20.01 штиль 0 5000 м мгла 8/4 500 м
[Sc As op Ci fib]
+25.6 +23.4 88 +35 +35 очень
душно
1009.0 1006.0
21 20.01 штиль 0 5000 м мгла 8/4 500 м
[Sc As op Ci fib]
+25.6 +23.7 89 +35 +35 очень
душно
1007.2 1004.2
00 21.01 Ю 1 5000 м в посл. час дождь 10/6 500 м
[Sc As op Ci fib]
+25.2 +24.1 94 +35 +35 очень
душно
1009.3 1006.3 +25.2 0.0
03 21.01 штиль 0 5000 м слаб. дождь 10/8 500 м
[Sc As op Ci fib]
+26.6 +25.5 94 +39 +41 очень
душно
1010.4 1007.4 3
06 21.01 С 2 5000 м в посл. час дождь 10/8 500 м
[Sc As op Ci fib]
+31.6 +26.0 72 +47 +49 опасность
перегрева
1008.4 1005.4 1
09 21.01 Ю 2 7000 м гроза без осадков 10/5 500 м
[Cb cap As op Ci fib]
+27.6 +25.2 87 +40 +42 очень
душно
1007.0 1004.0
12 21.01 штиль 0 5000 м дождь {гроза} 10/6 500 м
[Cu med, cong As op]
+24.4 +23.8 96 +33 +33 очень
душно
1009.1 1006.1 +31.6 52
15 21.01 штиль 0 5000 м слаб. дождь 10/8 500 м
[Sc As op]
+24.0 +23.7 98 +33 +33 очень
душно
1011.2 1008.2 12
18 21.01 штиль 0 5000 м слаб. дождь 10/6 500 м
[Sc As op]
+24.2 +23.9 98 +33 +33 очень
душно
1009.5 1006.5 2
21 21.01 штиль 0 5000 м в посл. час дождь 10/6 500 м
[Sc As op]
+23.6 +23.0 96 +31 +31 очень
душно
1008.8 1005.8 4
00 22.01 штиль 0 7000 м {дождь} 10/4 500 м
[Sc As op Ci fib]
+24.0 +23.7 98 +33 +33 очень
душно
1009.9 1006.9 +23.4 65
03 22.01 С 1 6000 м в посл. час дождь 10/6 500 м
[Sc As op Ci fib]
+27.2 +25.3 89 +39 +44 очень
душно
1010.9 1007.9 0.4
06 22.01 СЗ 3 6000 м {дождь} 9/6 500 м
[Sc As op Ci fib]
+29.6 +24.5 74 +42 +46 опасность
перегрева
1009.1 1006.1 0.4
09 22.01 С 3 5000 м мгла 10/6 500 м
[Sc As op Ci fib]
+29.6 +25.3 78 +43 +44 опасность
перегрева
1008.3 1005.3
12 22.01 СЗ 2 5000 м мгла 10/8 500 м
[Sc As op Ci fib]
+26.8 +24.1 85 +37 +37 очень
душно
1010.4 1007.4 +30.2
15 22.01 штиль 0 5000 м мгла 10/6 500 м
[Sc As op Ci fib]
+25.0 +23.6 92 +34 +34 очень
душно
1011.6 1008.6
18 22.01 штиль 0 5000 м 9/5 500 м
[Sc As op Ci fib]
+24.6 +23.8 95 +33 +33 очень
душно
1010.4 1007.4
21 22.01 штиль 0 5000 м мгла 8/4 500 м
[Sc As op Ci fib]
+24.4 +23.6 95 +33 +33 очень
душно
1008.7 1005.7
00 23.01 штиль 0 5000 м мгла 9/5 500 м
[Sc As op Ci fib]
+25.0 +23.9 94 +34 +35 очень
душно
1010.0 1007.0 +24.0 0.4
03 23.01 СЗ 2 5000 м мгла 9/5 500 м
[Sc As op Ci fib]
+29.8 +24.7 74 +42 +47 опасность
перегрева
1011.0 1008.0
06 23.01 СЗ 4 5000 м мгла 9/5 500 м
[Cu med, cong As op Ci fib]
+32.2 +24.4 63 +44 +48 опасность
перегрева
1009.1 1006.1
09 23.01 СЗ 2 7000 м 8/5 500 м
[Cu med, cong As op Ci fib]
+32.1 +24.9 66 +46 +47 опасность
перегрева
1007.9 1004.9
12 23.01 С 2 6000 м 10/6 500 м
[Sc As op Ci fib]
+28.3 +24.5 80 +40 +40 очень
душно
1009.4 1006.4 +32.8
15 23.01 штиль 0 5000 м в посл. час гроза {ливн. осадки, дождь} 10/8 500 м
[Sc As op Ci fib]
+25.2 +23.8 92 +34 +34 очень
душно
1012.0 1009.0 5
18 23.01 штиль 0 5000 м мгла {гроза, дождь} 10/6 500 м
[Sc As op Ci fib]
+24.8 +23.7 94 +34 +34 очень
душно
1010.8 1007.8 5
21 23.01 штиль 0 5000 м мгла 10/6 500 м
[Sc As op Ci fib]
+24.6 +23.8 95 +33 +33 очень
душно
1009.2 1006.2

 

Местоположение метеостанции Серанг (Индонезия): широта -6.12 долгота 106.13 высота над уровнем моря 40 м.

В архиве по умолчанию представлена погода в Серанге за последнюю неделю. Архивные данные за месяц целиком и за предыдущие месяцы, начиная с января 2011 года, Вы можете получить, выбрав интересующий диапазон дат из раскрывающегося списка и нажав кнопку "Ввод!".


*Определитесь, кто Вы:
робот инопланетянин человек

Внимание! Время в таблицах - всемирное. Для получения местного времени необходимо прибавить поправку, которая равна 7 ч.

Смотрите также архив погоды в соседних городах и на ближайших метеорологических станциях:

Погода в Аэропорту Сукарно-Хатта (Индонезия) (58 км)
Погода в Чуруге (Индонезия) (59 км)
Погода в Джакарте (Индонезия) (78 км)
Погода в Джакарта порту (Индонезия) (82 км)
Погода в Цитеко (Индонезия) (109 км)
Погода в Танджунгкаранге (Индонезия) (155 км)
Погода в Бандунге (Индонезия) (182 км)
Погода в Сиребоне (Индонезия) (246 км)
Погода в Тегале (Индонезия) (343 км)
Погода в Чилачапе (Индонезия) (365 км)

Пояснения к столбцам:

Ветер - указаны скорость ветра в м/с - средняя за 10 мин, порывы в срок и между сроками (в фигурных скобках) и направление, откуда дует ветер: С - северный, СВ - северо-восточный, В - восточный, ЮВ - юго-восточный, Ю - южный, ЮЗ - юго-западный, З - западный, СЗ - северо-западный.
Видимость - горизонтальная дальность видимости в метрах или километрах. При видимости от 1 до 10 км при отсутствии осадков обычно наблюдается дымка, при ухудшении видимости до 1 км и менее - туман. В сухую погоду видимость может ухудшаться дымом, пылью или мглою.
Явления - указаны атмосферные явления, наблюдавшиеся в срок или в последний час перед сроком; фигурными скобками обозначены явления, наблюдавшиеся между сроками (за 1-3 часа до срока); квадратными скобками обозначены град или гололедные отложения с указанием их диаметра в мм.
Облачность - указаны через наклонную черту общая и нижняя облачность в баллах и высота нижней границы облаков в метрах; квадратными скобками обозначены формы облаков: Ci - перистые, Cs - перисто-слоистые, Cc - перисто-кучевые, Ac - высококучевые, As - высокослоистые, Sc - слоисто-кучевые, Ns - слоисто-дождевые, Cu - кучевые, Cb - кучево-дождевые. Подробнее классификацию облаков см. в Атласе облаков (PDF).
T - Температура воздуха - температура, измеренная на высоте 2 м над землей.
Td - Температура точки росы - температура, при понижении до которой содержащийся в воздухе водяной пар достигнет насыщения.
f - Относительная влажность воздуха - влажноcть воздуха, измеренная на высоте 2 м над землей.
Te - Эффективная температура - температура, которую ощущает одетый по сезону человек в тени. Характеристика душности погоды. При расчете учитывается влияние влажности воздуха и скорости ветра на теплоощущения человека.
Tes - Эффективная температура на солнце - температура, которую ощущает человек, с поправкой на солнечный нагрев. Характеристика знойности погоды. Зависит от высоты солнца над горизонтом, облачности и скорости ветра. Ночью, в пасмурную погоду, а также при ветре 12 м/с и более поправка равна нулю.
P - Атмосферное давление - приведенное к уровню моря атмосферное давление.
Po - Атмосферное давление - измеренное на уровне метеостанции атмосферное давление.
Tmin - Минимальная температура - минимум температуры воздуха на высоте 2 м над землей.
Tmax - Максимальная температура - максимум температуры воздуха на высоте 2 м над землей.
R - Количество осадков - Количество выпавших осадков за период времени, мм. При наведении курсора мыши на число - период времени, за который выпало указанное количество осадков.
R24 - Количество осадков - Количество выпавших осадков за 24 часа, мм.
S - Снежный покров - Высота снежного покрова, см. При наведении курсора мыши на число - состояние снежного покрова и степень покрытия местности в баллах.